SCP
0 0 0 0 1 1 1 1 0 0 0 0 1 1 1 1 1 1 1 1 1 1 1 1 1 1 1 2 3 3 2 2 2 1 0 0 0 0 0 0 0 0 0
0 0 0 0 1 1 1 1 0 0 0 0 1 1 1 1 1 1 1 1 0 0 0 0 1 1 1 2 2 2 2 2 1 1 0 0 0 0 0 0 0 0 0
0 0 0 0 1 1 0 0 0 0 0 0 0 1 1 0 0 0 0 0 0 0 0 0 0 1 1 2 2 1 1 1 1 0 0 0 0 0 0 0 0 0 0
0 0 0 0 0 0 0 0 0 0 0 0 0 0 0 0 0 0 0 0 0 0 0 0 1 1 1 1 1 1 1 1 1 0 0 0 0 0 0 0 0 0 0
0 0 0 0 0 0 0 0 0 0 0 0 0 0 0 0 0 0 0 0 0 0 0 0 1 1 1 1 1 1 0 0 0 0 0 0 0 0 0 0 0 0 0
0 0 0 0 0 0 0 0 0 0 0 0 0 0 0 0 0 0 0 0 0 0 0 0 0 0 0 0 0 0 0 0 0 0 0 0 0 0 0 0 0 0 0
0 0 0 0 0 0 0 0 0 0 0 0 0 0 0 0 0 0 0 0 0 0 0 0 0 0 0 0 0 0 0 0 0 0 0 0 0 0 0 0 0 0 0
0 0 0 0 0 0 0 0 0 0 0 0 0 0 0 0 0 0 0 0 0 0 0 0 0 0 0 0 0 0 0 0 0 0 0 0 0 0 0 0 0 0 0
0 0 0 0 0 0 0 0 1 1 0 0 0 0 0 0 0 0 0 0 0 0 0 0 0 0 0 0 0 0 0 0 0 0 0 0 0 0 0 0 0 0 0
0 0 0 0 0 0 1 1 1 1 1 1 0 0 0 0 0 0 0 0 0 0 0 0 0 0 0 0 0 0 0 0 0 0 0 0 0 0 0 0 0 0 0
0 0 0 0 0 0 1 1 1 1 1 1 1 1 0 0 0 0 0 0 0 0 0 0 0 0 0 0 0 0 0 0 0 0 0 0 0 0 0 0 0 0 0
0 0 0 0 0 0 1 1 1 1 1 1 1 1 1 0 0 0 0 0 0 0 0 0 0 0 0 0 0 0 0 0 0 0 0 0 0 0 0 0 0 0 0
0 0 0 0 0 0 1 1 1 1 1 0 0 0 0 0 0 0 0 0 0 0 0 0 0 0 0 0 0 0 0 0 0 0 0 0 0 0 0 0 0 0 0
0 0 0 0 0 0 0 0 0 0 0 0 0 0 0 0 0 0 0 0 0 0 0 0 0 0 0 0 0 0 0 0 0 0 0 0 0 0 0 0 0 0 0
0 0 0 0 0 0 0 0 0 0 0 0 0 0 0 0 0 0 0 0 0 0 0 0 0 0 0 0 0 0 0 0 0 0 0 0 0 0 0 0 0 0 0
0 0 0 0 0 0 0 0 0 0 0 0 0 0 0 0 0 0 0 0 0 0 0 0 0 0 0 0 0 0 0 0 0 0 0 0 0 0 0 0 0 0 0
0 0 0 0 0 0 0 0 0 0 0 0 0 0 0 0 0 0 0 0 0 0 0 0 0 0 0 0 0 0 0 0 0 0 0 0 0 0 0 0 0 0 0
0 0 0 0 0 0 0 0 0 0 0 0 0 0 0 0 0 0 0 0 0 0 0 0 0 0 0 0 0 0 0 0 0 0 0 0 0 0 0 0 0 0 0
0 0 0 0 0 0 0 0 0 0 0 0 0 0 0 0 0 0 0 0 0 0 0 0 0 0 0 0 0 0 0 0 0 0 0 0 0 0 0 0 0 0 0
0 0 0 0 0 0 0 0 0 0 0 0 0 0 0 0 0 0 0 0 0 0 0 0 0 0 0 0 0 0 0 0 0 0 0 0 0 0 0 0 0 0 0
0 0 0 0 0 0 0 0 0 0 0 0 0 0 0 0 0 0 0 0 0 0 0 0 0 0 0 0 0 0 0 0 0 0 0 0 0 0 0 0 0 0 0
0 0 0 0 0 0 0 0 0 0 0 0 0 0 0 0 0 0 0 0 0 0 0 0 0 0 0 0 0 0 0 0 0 0 0 0 0 0 0 0 0 0 0
0 0 0 0 0 0 0 0 0 0 0 0 0 0 0 0 0 0 0 0 0 0 0 0 0 0 0 0 0 0 0 0 0 0 0 0 0 0 0 0 0 0 0
0 0 0 0 0 0 0 0 0 0 0 0 0 0 0 0 0 0 0 0 0 0 0 0 0 0 0 0 0 0 0 0 0 0 0 0 0 0 0 0 0 0 0
0 0 0 0 0 0 0 0 0 0 0 0 0 0 0 0 0 0 0 0 0 0 0 0 0 0 0 0 0 0 0 0 0 0 0 0 0 0 0 0 0 0 0
0 0 0 0 0 0 0 0 0 0 0 0 0 0 0 0 0 0 0 0 0 0 0 0 0 0 0 0 0 0 0 0 0 0 0 0 0 0 0 0 0 0 0
Wind_Speed
6 6 5 5 5 5 5 5 4 4 4 5 5 4 4 5 5 4 4 4 4 3 3 3 2 2 1 1 1 2 3 4 5 4 3 4 4 5 5 3 4 5 6
5 5 5 5 5 5 5 5 5 5 4 5 5 5 5 5 5 5 5 5 5 4 4 4 4 3 3 2 2 2 3 4 6 7 5 4 4 5 4 4 4 5 5
4 5 5 5 5 5 5 5 5 5 5 5 5 5 6 6 6 6 5 5 5 5 4 4 4 4 4 3 4 4 4 5 5 6 6 4 4 4 4 3 4 3 5
4 5 5 5 4 4 4 5 4 4 4 5 5 5 6 7 8 7 6 5 5 5 5 5 5 5 5 4 5 5 5 6 5 6 6 5 4 3 3 2 2 2 3
4 5 4 4 4 4 4 4 4 4 5 4 5 5 6 6 8 8 6 6 5 5 5 6 6 8 8 6 5 4 5 5 5 5 6 5 4 3 3 2 3 3 2
4 4 4 3 3 4 3 4 4 5 5 5 6 6 7 7 10 11 7 5 5 5 5 5 7 9 10 10 11 10 7 6 5 4 4 5 4 3 2 2 2 2 2
3 3 3 3 4 3 4 4 4 4 4 5 5 6 7 9 12 11 10 5 5 5 6 5 6 8 8 6 9 10 9 8 6 4 5 4 4 3 2 2 2 2 2
3 3 3 3 4 4 4 4 4 3 3 4 4 5 5 8 11 11 9 5 5 6 6 6 7 7 7 5 6 7 7 6 5 5 5 4 4 2 1 2 1 2 1
4 4 4 4 4 4 4 3 3 3 3 3 4 5 5 6 10 10 7 3 4 6 7 8 7 7 9 8 5 6 6 5 7 8 7 5 5 4 2 1 1 1 1
4 4 4 4 4 4 4 3 2 2 2 3 4 4 5 5 8 10 8 3 4 4 4 7 10 8 8 8 5 5 6 4 4 4 3 2 3 2 1 0 1 1 0
4 4 4 3 3 3 2 2 2 2 2 3 3 4 4 5 7 10 9 4 4 4 4 5 5 8 9 9 6 4 3 2 1 2 2 2 2 1 1 1 1 1 1
4 4 3 3 3 3 2 1 1 1 2 2 2 3 4 4 5 7 9 8 7 5 4 4 4 6 7 6 4 4 4 3 0 1 2 2 2 1 1 1 1 1 1
4 4 3 3 3 2 2 1 1 1 1 1 2 3 3 3 3 5 6 7 7 4 3 3 2 3 3 2 2 4 4 2 1 2 2 1 1 1 0 0 1 1 2
4 4 3 3 3 3 3 3 4 4 4 3 3 3 3 4 4 4 2 2 2 2 1 1 1 3 2 2 2 1 1 1 1 1 1 1 0 1 1 1 1 1 1
4 3 3 3 4 4 4 5 5 5 5 4 5 5 4 4 3 4 4 4 4 4 4 2 2 2 1 1 1 1 1 1 1 1 1 0 1 1 1 1 1 1 1
3 2 3 3 3 4 4 4 7 5 5 7 6 5 4 4 2 4 5 6 6 6 4 3 1 1 0 1 0 0 1 1 1 1 0 1 1 1 1 1 1 1 1
3 2 1 2 2 2 3 4 4 2 2 3 3 3 2 1 2 3 5 8 8 5 3 3 0 1 0 0 0 1 1 1 0 1 1 1 1 1 1 2 1 1 1
3 2 1 1 1 1 2 3 4 4 4 3 3 4 4 4 5 5 5 6 5 4 3 2 1 1 0 1 1 1 1 0 0 1 1 1 1 2 2 2 1 1 2
3 2 1 1 1 2 1 2 2 3 3 4 5 5 6 6 7 8 5 4 6 3 1 1 0 0 1 1 0 0 0 1 0 1 1 1 2 2 2 2 1 1 3
2 1 2 3 3 3 2 2 2 2 2 3 4 5 5 5 5 6 6 5 4 2 1 1 1 1 0 1 1 1 1 1 1 2 1 1 2 2 3 3 3 3 3
5 5 5 5 3 2 2 1 1 2 2 2 2 4 4 5 5 3 3 3 2 1 0 0 1 2 2 2 1 0 0 1 1 1 1 1 2 2 2 3 3 4 3
4 5 5 4 3 2 1 2 2 3 3 3 3 5 6 5 4 2 1 1 1 1 1 1 2 2 0 1 1 0 1 1 1 1 1 2 2 3 3 3 3 3 3
5 5 5 4 3 2 3 3 3 3 3 2 3 4 5 5 3 1 1 1 1 1 1 1 2 2 0 1 1 1 1 1 1 1 1 2 3 3 3 4 5 6 5
6 6 5 5 5 5 5 4 4 4 3 1 1 2 3 3 2 1 1 1 2 2 2 2 2 1 1 1 2 1 1 1 1 1 2 3 4 4 4 4 5 6 6
7 6 6 5 5 5 4 4 3 3 2 2 2 2 2 2 2 3 2 2 2 3 3 3 2 3 3 3 2 2 3 3 1 1 2 3 5 5 5 6 6 6 6
8 7 6 5 4 4 3 3 3 3 3 3 2 2 2 2 2 2 3 3 3 3 3 3 4 4 4 4 3 5 6 5 4 3 3 3 5 6 6 6 8 7 8
Wind_Direction
52 45 38 31 31 35 35 29 26 22 17 10 4 11 19 16 11 14 17 21 26 26 28 37 37 44 48 56 92 106 106 107 117 114 109 125 124 126 129 132 136 146 152
61 56 48 41 37 37 33 27 24 21 19 20 18 16 22 21 15 21 21 28 29 30 30 36 36 48 54 62 79 102 113 114 128 131 130 132 130 134 140 152 156 165 156
67 64 56 45 40 37 34 33 30 26 26 25 26 24 25 23 21 24 26 33 32 38 39 41 42 55 57 59 70 82 99 105 112 127 132 130 131 144 148 166 165 155 166
64 61 54 47 42 40 36 35 35 35 37 29 28 28 31 33 26 23 26 36 39 44 50 55 53 60 62 66 75 81 95 104 114 121 126 132 133 148 148 165 163 175 165
65 61 54 48 43 44 41 33 26 31 48 38 34 35 37 40 26 20 22 38 39 45 53 64 70 73 73 72 81 89 99 107 114 122 126 130 137 149 161 182 160 161 164
73 71 64 54 48 48 53 45 37 35 39 40 43 44 41 35 20 24 26 30 34 45 56 64 80 77 77 78 82 82 90 103 108 115 124 132 133 135 149 163 147 145 151
78 71 69 64 58 48 56 54 47 41 40 48 50 56 55 32 22 21 22 30 41 43 49 51 63 66 64 73 83 82 78 79 93 105 110 117 119 127 137 132 125 132 147
81 70 64 66 64 49 51 52 49 47 45 51 53 56 61 39 23 19 16 38 47 51 57 60 68 60 43 48 81 84 83 72 78 86 91 102 107 102 92 121 146 139 166
83 74 64 56 59 52 54 50 55 59 53 63 62 59 61 45 25 20 18 42 57 54 57 52 54 61 37 41 72 83 85 84 80 86 92 99 98 91 72 56 63 108 139
80 75 72 65 65 62 56 49 50 51 56 72 71 64 61 53 33 28 21 47 67 69 76 73 56 50 43 45 60 72 76 70 89 103 103 122 139 138 149 75 37 46 90
91 85 80 70 73 74 60 47 47 55 60 76 85 84 70 58 49 39 34 36 32 54 67 70 54 40 41 39 49 66 72 31 63 124 133 141 144 156 187 191 137 78 66
96 92 84 69 62 78 74 48 53 78 101 101 105 101 91 70 47 40 39 41 34 45 55 63 59 39 33 25 33 28 12 352 258 136 114 125 135 134 137 126 125 141 170
106 96 91 79 64 63 62 68 69 55 64 88 92 94 98 99 77 44 37 36 36 44 45 45 40 19 4 360 0 342 337 334 44 76 86 88 100 121 140 188 228 226 245
114 111 111 106 90 62 42 43 47 36 33 34 55 68 77 74 53 28 20 62 70 55 26 347 300 300 299 313 310 289 290 42 53 57 70 60 92 175 214 212 210 235 247
129 133 129 115 99 82 66 44 52 53 46 38 30 35 45 62 39 22 17 21 18 22 340 298 249 229 214 203 190 179 147 126 80 55 66 282 255 252 253 230 226 248 253
155 159 151 145 147 142 125 99 58 70 73 67 57 54 68 77 62 14 9 2 354 354 341 296 268 257 137 84 25 92 107 84 55 28 345 320 332 318 298 281 268 274 285
153 155 157 147 149 145 142 142 138 116 66 54 51 49 53 336 326 334 342 337 317 315 290 277 294 350 352 102 60 44 75 97 71 304 305 314 311 309 308 303 298 308 308
154 151 191 171 150 139 153 158 156 159 165 175 205 231 240 258 279 296 323 326 290 251 242 254 242 215 281 28 37 37 35 48 263 294 325 321 316 311 306 297 297 315 311
173 153 181 180 176 172 187 181 160 163 168 165 166 191 227 242 260 267 272 259 269 276 245 223 214 56 51 55 41 143 215 249 260 294 276 278 293 292 289 294 298 294 278
164 159 239 230 208 198 204 195 176 183 186 179 174 174 182 206 226 228 220 238 254 261 294 358 54 88 203 239 230 217 216 214 221 240 239 255 282 287 293 296 295 286 275
182 177 214 243 233 211 209 207 195 208 208 198 153 142 172 221 230 217 203 210 230 255 70 330 263 233 215 227 237 225 236 272 261 269 294 289 291 295 293 286 282 284 285
203 186 200 220 215 209 205 214 225 225 220 196 169 174 197 243 260 228 193 171 173 188 194 232 289 304 349 335 16 317 279 261 286 357 335 306 293 290 291 291 292 293 293
223 208 196 197 200 180 229 234 234 242 240 218 199 176 185 220 234 212 180 164 178 216 208 202 240 269 3 71 1 311 300 331 16 25 326 301 298 295 291 290 293 294 288
234 223 207 196 201 204 218 227 236 245 250 243 226 213 191 199 226 194 212 212 201 205 216 222 232 246 231 231 245 279 41 60 19 350 330 303 292 285 287 288 288 291 293
243 236 224 214 216 219 218 228 243 248 248 247 239 241 227 207 204 198 204 206 209 216 221 221 221 229 231 236 223 150 140 139 148 300 300 286 283 283 282 282 281 284 284
238 236 233 227 220 224 228 234 244 254 255 250 241 233 241 244 232 212 201 203 217 222 217 221 223 225 219 223 211 166 172 184 194 212 249 271 279 281 284 284 287 286 283